This demonstration page uses our WeatherBlox Daily Observations layout. Learn more.

Left ArrowRight Arrow

Hourly Observations for June 7, 2017

Temp ( °F °C ) Dew Point ( °F °C ) Humidity (%) Winds ( mph kmh ) Pressure ( in mb ) Visibility ( mi km ) Precip ( " mm )
12:51 am 00:51 Clear 82 27.8 43 6.1 25 25 E 7 11 29.75 1008 10 16 N/A
1:51 am 01:51 Clear 78 25.6 42 5.6 28 28 E 6 9 29.74 1007 10 16 N/A
2:51 am 02:51 Clear 82 27.8 43 6.1 25 25 E 8 13 29.74 1007 10 16 N/A
3:51 am 03:51 Clear 82 27.8 44 6.7 26 26 VRB 5 7 29.75 1008 10 16 N/A
4:51 am 04:51 Mostly Clear 80 26.7 48 8.9 33 33 SE 10 17 29.78 1009 10 16 N/A
5:30 am 05:30 Partly Cloudy with Nearby Thunderstorms 79 26 48 9 34 34 E 5 7 29.80 1009 10 16 N/A
5:51 am 05:51 Sunny 78 25.6 48 8.9 35 35 SE 3 6 29.80 1009 10 16 N/A
6:51 am 06:51 Sunny 82 27.8 46 7.8 28 28 E 9 15 29.82 1010 10 16 N/A
7:51 am 07:51 Sunny 85 29.4 46 7.8 26 26 ESE 9 15 29.83 1010 10 16 N/A
8:51 am 08:51 Sunny 90 32.2 47 8.3 23 23 E 13 20 29.84 1011 10 16 N/A
9:51 am 09:51 Sunny 93 33.9 47 8.3 21 21 E 15 24 29.83 1010 10 16 N/A
10:51 am 10:51 Sunny 93 33.9 47 8.3 21 21 SSE 6 9 29.82 1010 10 16 N/A
11:51 am 11:51 Mostly Sunny 95 35 44 6.7 17 17 S 8 13 29.79 1009 10 16 N/A
12:51 pm 12:51 Sunny 99 37.2 42 5.6 14 14 S 10 17 29.77 1008 10 16 N/A
1:51 pm 13:51 Sunny 101 38.3 40 4.4 12 12 VRB 6 9 29.73 1007 10 16 N/A
2:35 pm 14:35 Sunny with Nearby Thunderstorms 100 37.8 39 3.9 12 12 SE 6 9 29.62 1003 10 16 N/A
2:51 pm 14:51 Sunny with Nearby Thunderstorms 99 37.2 39 3.9 12 12 S 5 7 29.70 1006 10 16 N/A
2:58 pm 14:58 Sunny 99 37 39 4 13 13 WSW 3 6 29.62 1003 10 16 N/A
3:19 pm 15:19 Sunny with Thunderstorms 95 35 44 6.7 17 17 WSW 21 33 29.65 1004 10 16 N/A
3:34 pm 15:34 Partly Cloudy with Light Rain 91 33 54 12 28 28 SSW 13 20 29.65 1004 10 16 N/A
3:51 pm 15:51 Partly Cloudy 95 35 48 8.9 20 20 S 5 7 29.70 1006 10 16 N/A
4:51 pm 16:51 Sunny 100 37.8 39 3.9 12 12 SSW 3 6 29.68 1005 10 16 N/A
5:48 pm 17:48 Sunny with Nearby Thunderstorms 99 37 37 3 12 12 WNW 16 26 29.62 1003 10 16 N/A
5:51 pm 17:51 Sunny with Nearby Thunderstorms 97 36.1 40 4.4 14 14 WNW 18 30 29.72 1006 10 16 N/A
6:08 pm 18:08 Sunny with Nearby Thunderstorms 93 34 45 7 19 19 NNE 13 20 29.68 1005 10 16 N/A
6:22 pm 18:22 Partly Cloudy with Thunderstorms 93 33.9 42 5.6 17 17 NE 16 26 29.68 1005 10 16 N/A
6:37 pm 18:37 Mostly Cloudy with Nearby Thunderstorms 85 29.4 53 11.7 33 33 undefined N/A 29.77 1008 6 10 N/A
6:48 pm 18:48 Cloudy with Nearby Thunderstorms 81 27 55 13 42 42 W 10 17 29.83 1010 3 4 N/A
6:51 pm 18:51 Cloudy with Nearby Thunderstorms 80 26.7 54 12.2 41 41 VRB 3 6 29.88 1012 3 4 0.05 1.27
7:03 pm 19:03 Cloudy with Light Rain 78 25.6 56 13.3 47 47 ENE 12 19 29.85 1011 4 6 0.05 1.27
7:51 pm 19:51 Partly Cloudy 77 25 60 15.6 56 56 ENE 15 24 29.86 1011 10 16 0.05 1.27
8:51 pm 20:51 Mostly Clear 79 26.1 54 12.2 42 42 ENE 20 31 29.85 1011 10 16 N/A
9:51 pm 21:51 Clear with Light Rain 75 23.9 57 13.9 54 54 SE 16 26 29.88 1012 10 16 N/A
10:51 pm 22:51 Clear 76 24.4 57 13.9 52 52 SSE 9 15 29.88 1012 10 16 N/A
11:51 pm 23:51 Clear 75 23.9 55 12.8 50 50 SE 6 9 29.89 1012 10 16 N/A

Powered by AerisWeather